STARLINK-32851, 62810

Orbit data source: Space-Track

STARLINK-32851, 62810 is a payload satellite owned by SpaceX/Seattle (US) in LEO that was launched on Fri, 24 Jan 2025 UTC via an FALCON 9 launch vehicle from the Air Force Western Test Range (AFWTR). Payload-class satellites include a variety of spacecraft equipped with specific instruments for various scientific and technological missions. These include communications satellites like Starlink; space stations such as the ISS; scientific satellites like the Hubble; Earth observation satellites from companies like Planet Labs, Umbra, and HawkEye 360; GPS; miniature CubeSats for education and research; and military/defense satellites.

Loading next visibility...
Identifier
62810, 2025-018E
Orbit
LEO
Country
Flag of USUS
Related business
Manufacturer
SpaceX/Seattle
Mission
Operational Commercial Communications
Bus & Motor
STARLINK V2M, Unknown motor
Mass
730 kg wet, ~700 kg dry
Launch date (UTC)
2025-01-24 (2 years ago)
Launch vehicle
FALCON 9
Launch site
Air Force Western Test Range (AFWTR)
Object type
Payload
Rocket body
Debris
Shape & HBR
Box + 2 Pan, 17.7 m
Radar Cross Section
33.884 m², Large (>1 m²)

Expand to show TLE details & history
Last TLE update: 8 hours ago

TLE from 8 hours ago
0 STARLINK-32851
1 62810U 25018E   26237.81774832  .00448331  00000-0  13631-1 0  9991
2 62810  53.1567 243.9449 0004768   3.4896 356.6138 15.31652948 89065
Epoch: 2026-08-25T19:37Z
TLE epoch observation values (Epoch: 2026-08-25T19:37:33.454Z)
Latitude
-0.00002°
Longitude
-24.52416°
Altitude
468.52 km
Speed
7.635 km/s
True Right ascension
16h 15m 46s
True Declination
0° 00' 00"
Sunlit
Object was in daylight at epoch
Visualization orbit readout
Latitude
Unknown
Longitude
Unknown
Altitude
Unknown
Speed
Unknown
Apparent Right ascension
Unknown
Apparent Declination
Unknown
Sunlit
N/A
Visualization observer readout
Local Sidereal Time
19:07:52
Azimuth
Unknown
Elevation
Unknown
Doppler factor
Unknown
Orbital elements
Apogee altitude
474.403 km
Perigee altitude
467.872 km
Semi-major axis
6,849.274 km
Eccentricity
0.00048
Inclination
53.1567°
RAAN
243.9449°
Arg. of periapsis
3.4896°
True anomaly
356.61057°
Mean anomaly
356.6138°
Eccentric anomaly
356.61219°
Mean motion
3.82892 °/min
Orbital period
94.02 mins
BSTAR
0.013631
Loading maneuver chart data...
Computing Atmospheric mass density...
Loading historical data...
Loading historical data...
Loading historical data...
Loading historical data...
Loading historical data...
Loading historical data...
Loading historical data...

Documentation

Showing up to 5 results
|